Time,TemperatureF,DewpointF,PressureIn,WindDirection,WindDirectionDegrees,WindSpeedMPH,WindSpeedGustMPH,Humidity,HourlyPrecipIn,Conditions,Clouds,dailyrainin,SoftwareType,DateUTC
2013-04-06 01:00:00,51.0,49.0,-100.00,North,9,1.0,-999.0,92,0.00,,,-99.99,,2013-04-06 08:00:00,
2013-04-06 01:22:00,51.0,49.0,-100.00,North,9,1.0,-999.0,92,0.00,,,-99.99,,2013-04-06 08:22:00,
2013-04-06 01:32:00,51.0,49.0,-100.00,North,9,1.0,-999.0,92,0.00,,,-99.99,,2013-04-06 08:32:00,
2013-04-06 01:42:00,51.0,49.0,-100.00,North,9,1.0,-999.0,92,0.00,,,-99.99,,2013-04-06 08:42:00,
2013-04-06 01:52:00,51.0,49.0,-100.00,North,9,1.0,-999.0,92,0.00,,,-99.99,,2013-04-06 08:52:00,
2013-04-06 02:00:00,51.0,49.0,-100.00,South,183,1.0,-999.0,93,0.00,,,-99.99,,2013-04-06 09:00:00,
2013-04-06 02:22:00,51.0,49.0,-100.00,South,183,1.0,-999.0,93,0.00,,,-99.99,,2013-04-06 09:22:00,
2013-04-06 02:33:00,51.0,49.0,-100.00,South,183,1.0,-999.0,93,0.00,,,-99.99,,2013-04-06 09:33:00,
2013-04-06 02:43:00,51.0,49.0,-100.00,South,183,1.0,-999.0,93,0.00,,,-99.99,,2013-04-06 09:43:00,
2013-04-06 02:53:00,51.0,49.0,-100.00,South,183,1.0,-999.0,93,0.00,,,-99.99,,2013-04-06 09:53:00,
2013-04-06 03:00:00,51.0,49.0,-100.00,NNE,24,1.0,-999.0,93,0.00,,,-99.99,,2013-04-06 10:00:00,
2013-04-06 03:23:00,51.0,49.0,-100.00,NNE,24,1.0,-999.0,93,0.00,,,-99.99,,2013-04-06 10:23:00,
2013-04-06 03:33:00,51.0,49.0,-100.00,NNE,24,1.0,-999.0,93,0.00,,,-99.99,,2013-04-06 10:33:00,
2013-04-06 03:43:00,51.0,49.0,-100.00,NNE,24,1.0,-999.0,93,0.00,,,-99.99,,2013-04-06 10:43:00,
2013-04-06 03:53:00,51.0,49.0,-100.00,NNE,24,1.0,-999.0,93,0.00,,,-99.99,,2013-04-06 10:53:00,
2013-04-06 04:00:00,51.0,49.0,-100.00,North,9,1.0,-999.0,94,0.00,,,-99.99,,2013-04-06 11:00:00,
2013-04-06 04:23:00,51.0,49.0,-100.00,North,9,1.0,-999.0,94,0.00,,,-99.99,,2013-04-06 11:23:00,
2013-04-06 04:33:00,51.0,49.0,-100.00,North,9,1.0,-999.0,94,0.00,,,-99.99,,2013-04-06 11:33:00,
2013-04-06 04:43:00,51.0,49.0,-100.00,North,9,1.0,-999.0,94,0.00,,,-99.99,,2013-04-06 11:43:00,
2013-04-06 04:52:00,51.0,49.0,-100.00,North,9,1.0,-999.0,94,0.00,,,-99.99,,2013-04-06 11:52:00,
2013-04-06 05:00:00,51.0,49.0,-100.00,South,190,1.0,-999.0,94,0.00,,,-99.99,,2013-04-06 12:00:00,
2013-04-06 05:22:00,51.0,49.0,-100.00,South,190,1.0,-999.0,94,0.00,,,-99.99,,2013-04-06 12:22:00,
2013-04-06 05:33:00,51.0,49.0,-100.00,South,190,1.0,-999.0,94,0.00,,,-99.99,,2013-04-06 12:33:00,
2013-04-06 05:44:00,51.0,49.0,-100.00,South,190,1.0,-999.0,94,0.00,,,-99.99,,2013-04-06 12:44:00,
2013-04-06 05:52:00,51.0,49.0,-100.00,South,190,1.0,-999.0,94,0.00,,,-99.99,,2013-04-06 12:52:00,
2013-04-06 06:00:00,51.0,49.0,-100.00,South,189,3.0,-999.0,94,0.00,,,-99.99,,2013-04-06 13:00:00,
2013-04-06 06:24:00,51.0,49.0,-100.00,South,189,3.0,-999.0,94,0.00,,,-99.99,,2013-04-06 13:24:00,
2013-04-06 06:32:00,51.0,49.0,-100.00,South,189,3.0,-999.0,94,0.00,,,-99.99,,2013-04-06 13:32:00,
2013-04-06 06:43:00,51.0,49.0,-100.00,South,189,3.0,-999.0,94,0.00,,,-99.99,,2013-04-06 13:43:00,
2013-04-06 06:53:00,51.0,49.0,-100.00,South,189,3.0,-999.0,94,0.00,,,-99.99,,2013-04-06 13:53:00,
2013-04-06 10:00:00,53.0,51.0,-100.00,SSE,168,4.0,-999.0,93,0.00,,,-99.99,,2013-04-06 17:00:00,
2013-04-06 10:22:00,53.0,51.0,-100.00,SSE,168,4.0,-999.0,93,0.00,,,-99.99,,2013-04-06 17:22:00,
2013-04-06 10:33:00,53.0,51.0,-100.00,SSE,168,4.0,-999.0,93,0.00,,,-99.99,,2013-04-06 17:33:00,
2013-04-06 10:43:00,53.0,51.0,-100.00,SSE,168,4.0,-999.0,93,0.00,,,-99.99,,2013-04-06 17:43:00,
2013-04-06 10:52:00,53.0,51.0,-100.00,SSE,168,4.0,-999.0,93,0.00,,,-99.99,,2013-04-06 17:52:00,
2013-04-06 11:00:00,57.0,51.0,-100.00,SSW,207,3.0,-999.0,79,0.00,,,-99.99,,2013-04-06 18:00:00,
2013-04-06 11:24:00,57.0,51.0,-100.00,SSW,207,3.0,-999.0,79,0.00,,,-99.99,,2013-04-06 18:24:00,
2013-04-06 11:32:00,57.0,51.0,-100.00,SSW,207,3.0,-999.0,79,0.00,,,-99.99,,2013-04-06 18:32:00,
2013-04-06 11:42:00,57.0,51.0,-100.00,SSW,207,3.0,-999.0,79,0.00,,,-99.99,,2013-04-06 18:42:00,
2013-04-06 11:52:00,57.0,51.0,-100.00,SSW,207,3.0,-999.0,79,0.00,,,-99.99,,2013-04-06 18:52:00,
2013-04-06 12:00:00,59.0,50.0,-100.00,SW,217,1.0,-999.0,71,0.00,,,-99.99,,2013-04-06 19:00:00,
2013-04-06 12:23:00,59.0,50.0,-100.00,SW,217,1.0,-999.0,71,0.00,,,-99.99,,2013-04-06 19:23:00,
2013-04-06 12:33:00,59.0,50.0,-100.00,SW,217,1.0,-999.0,71,0.00,,,-99.99,,2013-04-06 19:33:00,
2013-04-06 12:42:00,59.0,50.0,-100.00,SW,217,1.0,-999.0,71,0.00,,,-99.99,,2013-04-06 19:42:00,
2013-04-06 12:53:00,59.0,50.0,-100.00,SW,217,1.0,-999.0,71,0.00,,,-99.99,,2013-04-06 19:53:00,
2013-04-06 13:00:00,63.0,53.0,-100.00,SSW,201,3.0,-999.0,68,0.00,,,-99.99,,2013-04-06 20:00:00,
2013-04-06 13:23:00,63.0,53.0,-100.00,SSW,201,3.0,-999.0,68,0.00,,,-99.99,,2013-04-06 20:23:00,
2013-04-06 13:32:00,63.0,53.0,-100.00,SSW,201,3.0,-999.0,68,0.00,,,-99.99,,2013-04-06 20:32:00,
2013-04-06 13:42:00,63.0,53.0,-100.00,SSW,201,3.0,-999.0,68,0.00,,,-99.99,,2013-04-06 20:42:00,
2013-04-06 13:52:00,63.0,53.0,-100.00,SSW,201,3.0,-999.0,68,0.00,,,-99.99,,2013-04-06 20:52:00,
2013-04-06 14:00:00,65.0,50.0,-100.00,NNE,22,1.0,-999.0,59,0.00,,,-99.99,,2013-04-06 21:00:00,
2013-04-06 14:22:00,65.0,50.0,-100.00,NNE,22,1.0,-999.0,59,0.00,,,-99.99,,2013-04-06 21:22:00,
2013-04-06 14:33:00,65.0,50.0,-100.00,NNE,22,1.0,-999.0,59,0.00,,,-99.99,,2013-04-06 21:33:00,
2013-04-06 14:43:00,65.0,50.0,-100.00,NNE,22,1.0,-999.0,59,0.00,,,-99.99,,2013-04-06 21:43:00,
2013-04-06 14:52:00,65.0,50.0,-100.00,NNE,22,1.0,-999.0,59,0.00,,,-99.99,,2013-04-06 21:52:00,
2013-04-06 15:00:00,62.0,54.0,-100.00,NW,326,3.0,-999.0,75,0.00,,,-99.99,,2013-04-06 22:00:00,
2013-04-06 15:23:00,62.0,54.0,-100.00,NW,326,3.0,-999.0,75,0.00,,,-99.99,,2013-04-06 22:23:00,
2013-04-06 15:35:00,62.0,54.0,-100.00,NW,326,3.0,-999.0,75,0.00,,,-99.99,,2013-04-06 22:35:00,
2013-04-06 15:44:00,62.0,54.0,-100.00,NW,326,3.0,-999.0,75,0.00,,,-99.99,,2013-04-06 22:44:00,
2013-04-06 15:53:00,62.0,54.0,-100.00,NW,326,3.0,-999.0,75,0.00,,,-99.99,,2013-04-06 22:53:00,
2013-04-06 16:00:00,61.0,50.0,-100.00,West,265,1.0,-999.0,67,0.00,,,-99.99,,2013-04-06 23:00:00,
2013-04-06 16:23:00,61.0,50.0,-100.00,West,265,1.0,-999.0,67,0.00,,,-99.99,,2013-04-06 23:23:00,
2013-04-06 16:34:00,61.0,50.0,-100.00,West,265,1.0,-999.0,67,0.00,,,-99.99,,2013-04-06 23:34:00,
2013-04-06 16:43:00,61.0,50.0,-100.00,West,265,1.0,-999.0,67,0.00,,,-99.99,,2013-04-06 23:43:00,
2013-04-06 16:53:00,61.0,50.0,-100.00,West,265,1.0,-999.0,67,0.00,,,-99.99,,2013-04-06 23:53:00,
2013-04-06 17:00:00,60.0,46.0,-100.00,NW,304,2.0,-999.0,59,0.00,,,-99.99,,2013-04-07 00:00:00,
2013-04-06 17:23:00,60.0,46.0,-100.00,NW,304,2.0,-999.0,59,0.00,,,-99.99,,2013-04-07 00:23:00,
2013-04-06 17:33:00,60.0,46.0,-100.00,NW,304,2.0,-999.0,59,0.00,,,-99.99,,2013-04-07 00:33:00,
2013-04-06 17:43:00,60.0,46.0,-100.00,NW,304,2.0,-999.0,59,0.00,,,-99.99,,2013-04-07 00:43:00,
2013-04-06 17:53:00,60.0,46.0,-100.00,NW,304,2.0,-999.0,59,0.00,,,-99.99,,2013-04-07 00:53:00,
2013-04-06 18:00:00,59.0,49.0,-100.00,NW,315,2.0,-999.0,69,0.00,,,-99.99,,2013-04-07 01:00:00,
2013-04-06 18:24:00,59.0,49.0,-100.00,NW,315,2.0,-999.0,69,0.00,,,-99.99,,2013-04-07 01:24:00,
2013-04-06 18:33:00,59.0,49.0,-100.00,NW,315,2.0,-999.0,69,0.00,,,-99.99,,2013-04-07 01:33:00,
2013-04-06 18:43:00,59.0,49.0,-100.00,NW,315,2.0,-999.0,69,0.00,,,-99.99,,2013-04-07 01:43:00,
2013-04-06 18:53:00,59.0,49.0,-100.00,NW,315,2.0,-999.0,69,0.00,,,-99.99,,2013-04-07 01:53:00,
2013-04-06 19:00:00,53.0,48.0,-100.00,WNW,300,2.0,-999.0,83,0.00,,,-99.99,,2013-04-07 02:00:00,
2013-04-06 19:24:00,53.0,48.0,-100.00,WNW,300,2.0,-999.0,83,0.00,,,-99.99,,2013-04-07 02:24:00,
2013-04-06 19:33:00,53.0,48.0,-100.00,WNW,300,2.0,-999.0,83,0.00,,,-99.99,,2013-04-07 02:33:00,
2013-04-06 19:43:00,53.0,48.0,-100.00,WNW,300,2.0,-999.0,83,0.00,,,-99.99,,2013-04-07 02:43:00,
2013-04-06 19:52:00,53.0,48.0,-100.00,WNW,300,2.0,-999.0,83,0.00,,,-99.99,,2013-04-07 02:52:00,
2013-04-06 20:00:00,51.0,48.0,-100.00,NW,323,1.0,-999.0,87,0.00,,,-99.99,,2013-04-07 03:00:00,
2013-04-06 20:22:00,51.0,48.0,-100.00,NW,323,1.0,-999.0,87,0.00,,,-99.99,,2013-04-07 03:22:00,
2013-04-06 20:35:00,51.0,48.0,-100.00,NW,323,1.0,-999.0,87,0.00,,,-99.99,,2013-04-07 03:35:00,
2013-04-06 20:44:00,51.0,48.0,-100.00,NW,323,1.0,-999.0,87,0.00,,,-99.99,,2013-04-07 03:44:00,
2013-04-06 20:54:00,51.0,48.0,-100.00,NW,323,1.0,-999.0,87,0.00,,,-99.99,,2013-04-07 03:54:00,
2013-04-06 21:00:00,51.0,47.0,-100.00,South,172,2.0,-999.0,86,0.00,,,-99.99,,2013-04-07 04:00:00,
2013-04-06 21:23:00,51.0,47.0,-100.00,South,172,2.0,-999.0,86,0.00,,,-99.99,,2013-04-07 04:23:00,
2013-04-06 21:32:00,51.0,47.0,-100.00,South,172,2.0,-999.0,86,0.00,,,-99.99,,2013-04-07 04:32:00,
2013-04-06 21:43:00,51.0,47.0,-100.00,South,172,2.0,-999.0,86,0.00,,,-99.99,,2013-04-07 04:43:00,
2013-04-06 21:52:00,51.0,47.0,-100.00,South,172,2.0,-999.0,86,0.00,,,-99.99,,2013-04-07 04:52:00,
2013-04-06 22:00:00,51.0,47.0,-100.00,WSW,242,2.0,-999.0,86,0.00,,,-99.99,,2013-04-07 05:00:00,
2013-04-06 22:23:00,51.0,47.0,-100.00,WSW,242,2.0,-999.0,86,0.00,,,-99.99,,2013-04-07 05:23:00,
2013-04-06 22:34:00,51.0,47.0,-100.00,WSW,242,2.0,-999.0,86,0.00,,,-99.99,,2013-04-07 05:34:00,
2013-04-06 22:43:00,51.0,47.0,-100.00,WSW,242,2.0,-999.0,86,0.00,,,-99.99,,2013-04-07 05:43:00,
2013-04-06 22:52:00,51.0,47.0,-100.00,WSW,242,2.0,-999.0,86,0.00,,,-99.99,,2013-04-07 05:52:00,
2013-04-06 23:00:00,50.0,47.0,-100.00,WNW,290,2.0,-999.0,87,0.00,,,-99.99,,2013-04-07 06:00:00,
2013-04-06 23:22:00,50.0,47.0,-100.00,WNW,290,2.0,-999.0,87,0.00,,,-99.99,,2013-04-07 06:22:00,
2013-04-06 23:32:00,50.0,47.0,-100.00,WNW,290,2.0,-999.0,87,0.00,,,-99.99,,2013-04-07 06:32:00,
2013-04-06 23:43:00,50.0,47.0,-100.00,WNW,290,2.0,-999.0,87,0.00,,,-99.99,,2013-04-07 06:43:00,
2013-04-06 23:52:00,50.0,47.0,-100.00,WNW,290,2.0,-999.0,87,0.00,,,-99.99,,2013-04-07 06:52:00,